Flag for Germany Weather past 2 weeks in Remscheid, North Rhine-Westphalia, Germany

Now
77 °F

Sunny.


Feels Like: 78 °F
Forecast: 49 / 75 °F
Wind: 7 mph from Northwest

Location: Duesseldorf

Current Time: Aug 1, 2015 at 4:37:26 PM

Latest Report: Aug 1, 2015 at 4:20 PM


Visibility: 10 mi

Pressure: 29.98 "Hg

Humidity: 30%

Dew point: 43 °F

Location of RemscheidLocation

Historic Weather in Remscheid — Graph

°F

Remscheid temperature yesterday

Maximum temperature yesterday: 68 °F (at 3:20 PM)
Minimum temperature yesterday: 45 °F (at 4:50 AM)
Average temperature yesterday: 58 °F

Past Weeks' High & Low Weather Summary

 TemperatureHumidityPressure
High91 °F (Jul 17, 4:50 PM)100% (Jul 20, 6:20 AM)30.15 "Hg (Jul 20, 6:20 AM)
Low45 °F (Jul 31, 4:50 AM)26% (Jul 17, 4:50 PM)29.50 "Hg (Jul 25, 6:50 AM)
Average65 °F70%29.88 "Hg
* Reported Jul 17 3:20 PM — Aug 1 3:20 PM, Remscheid, Weather by CustomWeather, © 2015

Note: Actual official high and low records may vary slightly from our data, if they occured in-between our weather recording intervals... More about our weather records

Advertising

Remscheid weather history for previous 24 hours

 ConditionsComfort  
Time TempWeatherWind HumidityBarometerVisibility
3:20 PM
Sat, Aug 1
77 °FSunny.7 mph32%29.95 "Hg10 mi
2:50 PM75 °FPassing clouds.5 mph31%29.95 "HgN/A
2:20 PM75 °FSunny.3 mph31%29.98 "Hg10 mi
1:50 PM75 °FSunny.6 mph34%29.98 "Hg10 mi
1:20 PM73 °FSunny.2 mph36%29.98 "Hg10 mi
12:50 PM72 °FSunny.3 mph36%29.98 "Hg10 mi
12:20 PM72 °FPassing clouds.7 mph36%29.98 "HgN/A
11:50 AM72 °FPassing clouds.7 mph38%29.98 "HgN/A
11:20 AM70 °FPassing clouds.7 mph40%29.98 "HgN/A
10:50 AM68 °FSunny.5 mph46%29.98 "Hg10 mi
10:20 AM66 °FSunny.1 mph49%29.98 "Hg10 mi
9:50 AM64 °FSunny.1 mph52%29.98 "Hg10 mi
9:20 AM63 °FSunny.3 mph56%29.98 "Hg10 mi
8:50 AM59 °FSunny.3 mph63%29.98 "Hg10 mi
8:20 AM57 °FSunny.3 mph67%29.98 "Hg10 mi
7:50 AM55 °FSunny.6 mph77%29.98 "Hg10 mi
7:20 AM52 °FSunny.5 mph82%29.98 "Hg10 mi
6:50 AM50 °FClear.3 mph82%29.98 "Hg10 mi
6:20 AM50 °FClear.5 mph82%29.98 "Hg10 mi
5:50 AM52 °FPassing clouds.5 mph77%29.98 "HgN/A
5:20 AM52 °FClear.5 mph77%29.98 "Hg10 mi
4:50 AM52 °FClear.6 mph77%29.98 "Hg10 mi
4:20 AM54 °FClear.3 mph72%30.01 "Hg10 mi
3:50 AM54 °FClear.2 mph72%30.01 "Hg10 mi
3:20 AM55 °FClear.2 mph67%30.01 "Hg10 mi
2:50 AM55 °FClear.6 mph63%30.01 "Hg10 mi
2:20 AM57 °FClear.5 mph59%30.01 "Hg10 mi
1:50 AM57 °FClear.7 mph59%30.01 "Hg10 mi
1:20 AM55 °FClear.7 mph63%30.01 "Hg10 mi
12:50 AM57 °FClear.6 mph59%30.01 "Hg10 mi
12:20 AM55 °FClear.6 mph67%30.04 "Hg10 mi
11:50 PM
Fri, Jul 31
57 °FClear.3 mph59%30.04 "Hg10 mi
11:20 PM57 °FClear.5 mph59%30.04 "Hg10 mi
10:50 PM59 °FClear.6 mph55%30.04 "Hg10 mi
10:20 PM59 °FSunny.7 mph55%30.04 "Hg10 mi
9:50 PM61 °FSunny.8 mph52%30.04 "Hg10 mi
9:20 PM63 °FSunny.8 mph49%30.04 "Hg10 mi
8:50 PM64 °FSunny.7 mph43%30.04 "Hg10 mi
8:20 PM64 °FSunny.8 mph43%30.04 "Hg10 mi
7:50 PM66 °FSunny.9 mph40%30.04 "Hg10 mi
7:20 PM66 °FSunny.8 mph37%30.04 "Hg10 mi
6:50 PM68 °FSunny.6 mph35%30.04 "Hg10 mi
6:20 PM68 °FPassing clouds.6 mph35%30.07 "HgN/A
5:50 PM68 °FSunny.6 mph35%30.07 "Hg10 mi
5:20 PM68 °FPassing clouds.5 mph35%30.07 "HgN/A
4:50 PM68 °FPassing clouds.5 mph38%30.07 "HgN/A
4:20 PM68 °FPassing clouds.6 mph38%30.07 "HgN/A
Weather by CustomWeather, © 2015

See weather overviewHow to use our weather pages